{"data":{"norad_id":63579,"intl_designator":"2025-076L","name":"STARLINK-33755","alt_names":[],"object_type":"PAYLOAD","status":"ACTIVE","operator":null,"country":"US","launch_date":"2025-04-14","launch_site_code":"AFETR","launch_vehicle":null,"mission":null,"orbit_class":"UNKNOWN","rcs_meters":null,"size_class":null,"mass_kg":null,"dimensions":null,"purposes":["comms"],"wikipedia_slug":null,"has_3d_model":false,"image_url":null,"decayed_at":null,"tle_current":{"epoch":"2026-05-25T00:18:12.642912Z","epoch_age_seconds":64144,"freshness":"FRESH","line1":"1 63579U 25076L   26145.01264633  .00014912  00000+0  55027-3 0  9991","line2":"2 63579  43.0022 250.5283 0001828 269.8442  90.2200 15.27582709 63505","mean_motion":15.27582709,"eccentricity":0.0001828,"inclination_deg":43.0022,"raan_deg":250.5283,"arg_perigee_deg":269.8442,"mean_anomaly_deg":90.22,"bstar":0.00055027,"rev_number":6350,"period_min":94.266581541936,"perigee_km":481.78676099555,"apogee_km":484.29520766662,"semimajor_km":6861.1779843311,"source":"CELESTRAK","updated_at":"2026-05-25T13:38:20.047533Z"}}}